TimeEST,TemperatureF,Dew PointF,Humidity,Sea Level PressureIn,VisibilityMPH,Wind Direction,Wind SpeedMPH,Gust SpeedMPH,PrecipitationIn,Events,Conditions,WindDirDegrees,DateUTC
12:15 AM,32.0,21.2,64,30.50,10.0,South,3.5,-,N/A,,Clear,190,2013-01-10 05:15:00
12:35 AM,32.0,23.0,69,30.51,10.0,South,4.6,-,N/A,,Clear,190,2013-01-10 05:35:00
12:55 AM,30.2,23.0,75,30.52,10.0,Calm,Calm,-,N/A,,Clear,0,2013-01-10 05:55:00
1:15 AM,30.2,23.0,75,30.52,10.0,Calm,Calm,-,N/A,,Clear,0,2013-01-10 06:15:00
1:35 AM,30.2,23.0,75,30.52,10.0,Calm,Calm,-,N/A,,Clear,0,2013-01-10 06:35:00
1:55 AM,30.2,23.0,75,30.52,10.0,Calm,Calm,-,N/A,,Clear,0,2013-01-10 06:55:00
3:15 AM,28.4,23.0,80,30.52,10.0,Calm,Calm,-,N/A,,Clear,0,2013-01-10 08:15:00
3:35 AM,26.6,21.2,80,30.51,10.0,Calm,Calm,-,N/A,,Clear,0,2013-01-10 08:35:00
3:55 AM,26.6,23.0,86,30.51,10.0,Calm,Calm,-,N/A,,Clear,0,2013-01-10 08:55:00
4:15 AM,28.4,23.0,80,30.51,10.0,Calm,Calm,-,N/A,,Clear,0,2013-01-10 09:15:00
4:35 AM,26.6,23.0,86,30.52,10.0,Calm,Calm,-,N/A,,Clear,0,2013-01-10 09:35:00
4:55 AM,24.8,21.2,86,30.52,10.0,Calm,Calm,-,N/A,,Clear,0,2013-01-10 09:55:00
5:15 AM,26.6,23.0,86,30.51,10.0,Calm,Calm,-,N/A,,Clear,0,2013-01-10 10:15:00
5:35 AM,26.6,21.2,80,30.51,10.0,Calm,Calm,-,N/A,,Clear,0,2013-01-10 10:35:00
5:55 AM,24.8,21.2,86,30.51,10.0,Calm,Calm,-,N/A,,Clear,0,2013-01-10 10:55:00
6:15 AM,24.8,21.2,86,30.50,10.0,Calm,Calm,-,N/A,,Clear,0,2013-01-10 11:15:00
6:35 AM,24.8,21.2,86,30.50,10.0,Calm,Calm,-,N/A,,Clear,0,2013-01-10 11:35:00
6:55 AM,26.6,23.0,86,30.51,10.0,Calm,Calm,-,N/A,,Clear,0,2013-01-10 11:55:00
7:15 AM,26.6,23.0,86,30.51,10.0,Calm,Calm,-,N/A,,Clear,0,2013-01-10 12:15:00
7:35 AM,24.8,21.2,86,30.52,10.0,Calm,Calm,-,N/A,,Clear,0,2013-01-10 12:35:00
7:55 AM,23.0,21.2,93,30.52,10.0,Calm,Calm,-,N/A,,Clear,0,2013-01-10 12:55:00
8:35 AM,26.6,21.2,80,30.52,10.0,ENE,3.5,-,N/A,,Clear,60,2013-01-10 13:35:00
9:15 AM,30.2,24.8,80,30.53,10.0,ENE,4.6,-,N/A,,Clear,70,2013-01-10 14:15:00
9:35 AM,32.0,26.6,80,30.52,10.0,ENE,5.8,-,N/A,,Clear,70,2013-01-10 14:35:00
9:55 AM,32.0,28.4,87,30.52,10.0,East,4.6,-,N/A,,Clear,80,2013-01-10 14:55:00
10:15 AM,32.0,28.4,87,30.52,10.0,East,6.9,-,N/A,,Clear,80,2013-01-10 15:15:00
10:35 AM,33.8,28.4,81,30.50,10.0,East,6.9,-,N/A,,Clear,80,2013-01-10 15:35:00
10:55 AM,35.6,28.4,75,30.51,10.0,East,8.1,-,N/A,,Clear,90,2013-01-10 15:55:00
11:15 AM,35.6,28.4,75,30.50,10.0,East,11.5,-,N/A,,Clear,90,2013-01-10 16:15:00
11:35 AM,37.4,28.4,70,30.49,10.0,East,10.4,-,N/A,,Clear,100,2013-01-10 16:35:00
11:55 AM,37.4,28.4,70,30.48,10.0,East,10.4,-,N/A,,Clear,100,2013-01-10 16:55:00
12:15 PM,37.4,28.4,70,30.47,10.0,ESE,9.2,18.4,N/A,,Clear,110,2013-01-10 17:15:00
12:35 PM,39.2,30.2,70,30.47,10.0,ESE,9.2,-,N/A,,Clear,110,2013-01-10 17:35:00
12:55 PM,37.4,28.4,70,30.45,10.0,ESE,11.5,17.3,N/A,,Clear,110,2013-01-10 17:55:00
1:15 PM,37.4,28.4,70,30.43,10.0,ESE,9.2,-,N/A,,Clear,110,2013-01-10 18:15:00
1:35 PM,37.4,28.4,70,30.41,10.0,East,6.9,16.1,N/A,,Clear,90,2013-01-10 18:35:00
1:55 PM,37.4,28.4,70,30.40,10.0,ESE,8.1,-,N/A,,Clear,110,2013-01-10 18:55:00
2:15 PM,37.4,30.2,75,30.39,10.0,East,10.4,-,N/A,,Clear,100,2013-01-10 19:15:00
2:35 PM,37.4,30.2,75,30.38,10.0,ESE,4.6,-,N/A,,Clear,120,2013-01-10 19:35:00
2:55 PM,37.4,30.2,75,30.38,10.0,East,8.1,-,N/A,,Clear,100,2013-01-10 19:55:00
3:15 PM,37.4,30.2,75,30.37,10.0,ESE,8.1,-,N/A,,Clear,110,2013-01-10 20:15:00
3:35 PM,37.4,30.2,75,30.35,10.0,East,8.1,-,N/A,,Clear,90,2013-01-10 20:35:00
3:55 PM,37.4,30.2,75,30.35,10.0,East,9.2,-,N/A,,Clear,90,2013-01-10 20:55:00
4:15 PM,37.4,30.2,75,30.34,10.0,ESE,8.1,-,N/A,,Clear,110,2013-01-10 21:15:00
4:35 PM,37.4,30.2,75,30.33,10.0,ESE,6.9,-,N/A,,Scattered Clouds,110,2013-01-10 21:35:00
4:55 PM,37.4,30.2,75,30.33,10.0,East,8.1,-,N/A,,Mostly Cloudy,100,2013-01-10 21:55:00
5:15 PM,37.4,30.2,75,30.31,10.0,East,9.2,-,N/A,,Mostly Cloudy,100,2013-01-10 22:15:00
5:35 PM,37.4,30.2,75,30.31,10.0,East,11.5,-,N/A,,Overcast,100,2013-01-10 22:35:00
5:55 PM,37.4,30.2,75,30.30,10.0,ESE,6.9,-,N/A,,Overcast,110,2013-01-10 22:55:00
6:15 PM,37.4,30.2,75,30.30,10.0,East,8.1,-,N/A,Rain,Light Rain,90,2013-01-10 23:15:00
6:35 PM,35.6,32.0,87,30.29,7.0,ESE,6.9,-,N/A,Rain,Light Rain,110,2013-01-10 23:35:00
6:55 PM,35.6,32.0,87,30.29,7.0,ESE,5.8,-,N/A,Rain,Light Rain,110,2013-01-10 23:55:00
7:15 PM,35.6,32.0,87,30.28,10.0,East,8.1,-,0.01,Rain,Light Rain,100,2013-01-11 00:15:00
7:35 PM,35.6,32.0,87,30.26,10.0,East,9.2,-,0.01,Rain,Rain,100,2013-01-11 00:35:00
7:55 PM,35.6,32.0,87,30.25,10.0,East,10.4,-,0.01,,Overcast,90,2013-01-11 00:55:00
8:15 PM,35.6,32.0,87,30.23,10.0,East,10.4,-,N/A,,Overcast,90,2013-01-11 01:15:00
8:35 PM,35.6,32.0,87,30.22,5.0,East,10.4,-,N/A,,Drizzle,90,2013-01-11 01:35:00
8:55 PM,35.6,32.0,87,30.20,10.0,East,11.5,-,N/A,,Overcast,100,2013-01-11 01:55:00
9:15 PM,35.6,32.0,87,30.19,7.0,ESE,9.2,-,N/A,,Light Drizzle,110,2013-01-11 02:15:00
9:35 PM,35.6,32.0,87,30.18,4.0,East,6.9,-,N/A,Rain,Light Rain,100,2013-01-11 02:35:00
9:55 PM,35.6,32.0,87,30.16,7.0,East,11.5,-,N/A,Rain,Light Rain,90,2013-01-11 02:55:00
10:15 PM,35.6,32.0,87,30.15,3.0,East,11.5,18.4,0.03,Rain,Rain,100,2013-01-11 03:15:00
10:35 PM,35.6,32.0,87,30.14,3.0,East,9.2,-,0.07,Rain,Rain,90,2013-01-11 03:35:00
10:55 PM,35.6,32.0,87,30.13,5.0,East,10.4,-,0.08,,Drizzle,100,2013-01-11 03:55:00
11:15 PM,35.6,32.0,87,30.11,4.0,East,9.2,-,0.01,Rain,Light Rain,90,2013-01-11 04:15:00
11:35 PM,35.6,32.0,87,30.10,7.0,East,9.2,-,0.01,,Overcast,100,2013-01-11 04:35:00
11:55 PM,35.6,32.0,87,30.10,7.0,East,6.9,-,0.01,,Overcast,100,2013-01-11 04:55:00